Trieste, Italy

7:57 AM CEST on June 25, 2017 (GMT +0200)
Trieste

Weather History for LIVT - October, 2014

Change the Weather History Date:

Sunday, October 26, 2014

  Actual Average Record
Temperature  
Mean Temperature 56 °F -  
Max Temperature 60 °F 55 °F 72 °F (2016)
Min Temperature 51 °F 47 °F 39 °F (2003)
Degree Days  
Heating Degree Days 10    
Growing Degree Days 6 (Base 50)    
Moisture  
Dew Point 38 °F    
Average Humidity 50    
Maximum Humidity 62    
Minimum Humidity 33    
Precipitation  
Precipitation 0.00 in 0.14 in - ()
Sea Level Pressure  
Sea Level Pressure 30.24 in    
Wind  
Wind Speed 15 mph ()    
Max Wind Speed 30 mph    
Max Gust Speed 63 mph    
Visibility 10.0 miles    
Events      
Averages and records for this station are not official NWS values.
T = Trace of Precipitation, MM = Missing Value Source: Averaged Metar Reports

Daily Weather History Graph

Daily Weather History Graph

Search for Another Location

Airport or City:

Trip Planner

Search our weather history database for the weather conditions in past years. The results will help you decide how hot, cold, wet, or windy it might be!

Date:

Astronomy

Oct. 26, 2014 Rise Set
Actual Time 6:36 AM CET 5:01 PM CET
Civil Twilight 6:05 AM CET 5:31 PM CET
Nautical Twilight 5:30 AM CET 6:06 PM CET
Astronomical Twilight 4:56 AM CET 6:40 PM CET
Moon 9:02 AM CET (10/26) 6:52 PM CET (10/26)
Length of Visible Light 11h 26m
Length of Day
10h 25m
Waxing Crescent, 7% of the Moon is Illuminated
Oct 26
Waxing Crescent
Oct 31
First Quarter
Nov 6
Full
Nov 14
Last Quarter
Nov 22
New

Hourly Weather History & Observations

Time (CET) Temp. Dew Point Humidity Pressure Visibility Wind Dir Wind Speed Gust Speed Precip Events Conditions
12:00 AM 54 °F 39 °F 46% 30.20 in 6 mi NE 21.9 mph - -   Partly Cloudy
12:55 AM 53.6 °F 39.2 °F 58% 30.18 in - NE 19.6 mph 46.0 mph N/A   Clear
1:00 AM 53 °F 39 °F 47% 30.19 in 6 mi NE 19.6 mph - -   Partly Cloudy
1:55 AM 53.6 °F 39.2 °F 58% 30.18 in - NNE 17.3 mph 43.7 mph N/A   Clear
2:00 AM 53 °F 39 °F 48% 30.20 in 6 mi NNE 17.3 mph - -  
2:55 AM 51.8 °F 39.2 °F 62% 30.18 in - NE 17.3 mph 36.8 mph N/A   Clear
2:00 AM 53 °F 39 °F 47% 30.20 in 6 mi NE 17.3 mph - -  
2:55 AM 51.8 °F 39.2 °F 62% 30.21 in - ENE 11.5 mph 23.0 mph N/A   Clear
3:00 AM 52 °F 38 °F 48% 30.21 in 6 mi ENE 11.5 mph - -  
3:55 AM 51.8 °F 39.2 °F 62% 30.21 in - NE 5.8 mph - N/A   Clear
4:00 AM 51 °F 39 °F 53% 30.21 in 6 mi NE 5.8 mph - -  
5:00 AM 51 °F 38 °F 51% 30.22 in 6 mi NE 13.8 mph - -  
5:55 AM 51.8 °F 39.2 °F 62% 30.21 in - NNE 18.4 mph 48.3 mph N/A   Clear
6:00 AM 52 °F 38 °F 48% 30.22 in 6 mi NNE 18.4 mph - -  
6:55 AM 51.8 °F 39.2 °F 62% 30.21 in - NNE 18.4 mph 36.8 mph N/A   Clear
7:00 AM 52 °F 38 °F 48% 30.22 in 12 mi NNE 18.4 mph - -  
7:55 AM 51.8 °F 39.2 °F 62% 30.24 in - ENE 18.4 mph 39.1 mph N/A   Clear
8:00 AM 52 °F 38 °F 48% 30.25 in 12 mi ENE 18.4 mph - -  
8:55 AM 53.6 °F 39.2 °F 58% 30.24 in - NE 19.6 mph 39.1 mph N/A   Clear
9:00 AM 54 °F 39 °F 45% 30.26 in 12 mi NE 19.6 mph - -  
9:55 AM 55.4 °F 39.2 °F 54% 30.24 in - NNE 13.8 mph 33.4 mph N/A   Clear
10:00 AM 55 °F 40 °F 45% 30.27 in 12 mi NNE 13.8 mph - -   Scattered Clouds
10:55 AM 55.4 °F 39.2 °F 54% 30.27 in - NE 18.4 mph 36.8 mph N/A   Clear
11:00 AM 56 °F 39 °F 42% 30.27 in 12 mi NE 18.4 mph - -   Scattered Clouds
11:55 AM 57.2 °F 39.2 °F 51% 30.27 in - NE 16.1 mph 36.8 mph N/A   Clear
12:00 PM 57 °F 40 °F 41% 30.28 in 12 mi NE 16.1 mph - -   Scattered Clouds
12:55 PM 57.2 °F 39.2 °F 51% 30.27 in - ENE 10.4 mph 26.5 mph N/A   Clear
1:00 PM 58 °F 40 °F 39% 30.28 in 12 mi ENE 10.4 mph - -   Clear
1:55 PM 59.0 °F 39.2 °F 48% 30.27 in - NE 6.9 mph 24.2 mph N/A   Clear
2:00 PM 60 °F 40 °F 35% 30.28 in 12 mi NE 6.9 mph - -   Clear
2:55 PM 60.8 °F 39.2 °F 45% 30.27 in - ENE 6.9 mph 18.4 mph N/A   Clear
3:00 PM 60 °F 39 °F 33% 30.27 in 12 mi ENE 6.9 mph - -   Clear
3:55 PM 57.2 °F 37.4 °F 48% 30.24 in - ENE 6.9 mph 23.0 mph N/A   Clear
4:00 PM 58 °F 38 °F 35% 30.27 in 12 mi ENE 6.9 mph - -   Clear
4:55 PM 55.4 °F 37.4 °F 51% 30.24 in - NE 13.8 mph 33.4 mph N/A   Clear
5:00 PM 55 °F 36 °F 38% 30.27 in 12 mi NE 13.8 mph - -  
5:55 PM 53.6 °F 37.4 °F 54% 30.27 in - ENE 12.7 mph 33.4 mph N/A   Clear
6:00 PM 54 °F 37 °F 41% 30.28 in 12 mi ENE 12.7 mph - -  
6:55 PM 53.6 °F 37.4 °F 54% 30.27 in - NE 18.4 mph 40.3 mph N/A   Clear
7:00 PM 54 °F 37 °F 41% 30.28 in 12 mi NE 18.4 mph - -  
7:55 PM 51.8 °F 37.4 °F 58% 30.24 in - NE 27.6 mph 55.2 mph N/A   Clear
8:00 PM 52 °F 37 °F 45% 30.26 in 12 mi NE 27.6 mph - -  
8:55 PM 51.8 °F 37.4 °F 58% 30.27 in - NE 27.6 mph 63.3 mph N/A   Clear
9:00 PM 52 °F 37 °F 45% 30.27 in 12 mi NE 27.6 mph - -  
9:55 PM 51.8 °F 37.4 °F 58% 30.24 in - NE 27.6 mph 51.8 mph N/A   Clear
10:00 PM 51 °F 37 °F 48% 30.27 in 12 mi NE 27.6 mph - -  
10:55 PM 51.8 °F 35.6 °F 54% 30.24 in - NE 29.9 mph 59.8 mph N/A   Clear